EW3811 Weather Reports


time (UTC)temp
C
wind
direction
speed
KPH
gust
KPH
rain 1hr
cm
rain 24hr
cm
rain mn
cm
humidity
%
barometer
mb
20260504194547 15 318 3.2 11.3 0.00 0.05 0.05 49 1007.5
20260504193040 15 68 0.0 1.6 0.03 0.05 0.05 53 1007.7
20260504191542 14 102 0.0 17.7 0.03 0.05 0.05 53 1007.9
20260504190038 13 179 1.6 17.7 0.05 0.05 0.05 56 1008.1
20260504184535 13 207 4.8 17.7 0.05 0.05 0.05 56 1007.8
20260504183032 13 199 0.0 8.0 0.03 0.03 0.03 58 1008.0
20260504181530 13 290 1.6 16.1 0.03 0.03 0.03 61 1008.2
20260504180029 12 236 0.0 8.0 0.00 0.00 0.00 62 1008.2
20260504174526 12 255 3.2 16.1 0.00 0.00 0.00 66 1008.4
20260504173023 11 62 0.0 11.3 0.00 0.00 0.00 70 1008.6
20260504171531 11 333 3.2 11.3 0.00 0.00 0.00 69 1008.6
20260504081516 2 338 0.0 0.0 0.00 0.03 0.00 66 1010.1
20260504044607 4 245 0.0 1.6 0.00 0.08 0.00 52 1010.1
20260504043052 5 360 0.0 9.7 0.00 0.08 0.00 51 1010.0
20260504041549 5 275 4.8 16.1 0.00 0.08 0.00 49 1009.8
20260504040053 5 47 1.6 17.7 0.00 0.08 0.08 49 1009.6
20260504034545 5 116 0.0 12.9 0.00 0.08 0.08 50 1009.3
20260504033044 5 110 1.6 24.1 0.00 0.08 0.08 48 1009.2
20260504031545 5 24 4.8 0.0 0.00 0.00 0.08 50 1009.0
20260504030043 4 230 1.6 12.9 0.00 0.10 0.08 53 1009.1
20260504024544 5 110 1.6 19.3 0.00 0.10 0.08 50 1008.9
20260504023041 5 200 9.7 17.7 0.00 0.10 0.08 51 1009.0
20260504021541 4 121 6.4 12.9 0.00 0.10 0.08 54 1009.2
20260504020040 4 284 0.0 1.6 0.00 0.10 0.08 56 1009.5
20260504014542 3 191 0.0 12.9 0.00 0.10 0.08 57 1009.2
20260504013050 3 84 0.0 8.0 0.00 0.10 0.08 58 1009.2
20260504011538 3 111 3.2 17.7 0.00 0.10 0.08 58 1009.0
20260504010041 3 51 0.0 6.4 0.00 0.10 0.08 58 1008.9
20260504004537 3 78 0.0 14.5 0.00 0.10 0.08 60 1008.8
20260504003037 3 96 0.0 4.8 0.00 0.10 0.08 60 1008.5
20260504001539 3 46 3.2 9.7 0.00 0.10 0.08 59 1008.5
20260504000037 3 65 1.6 14.5 0.00 0.10 0.08 59 1008.4
20260503234534 3 211 1.6 12.9 0.00 0.10 0.08 58 1008.2
20260503233033 4 122 3.2 20.9 0.00 0.10 0.08 59 1008.2
20260503231533 4 328 0.0 12.9 0.00 0.10 0.08 59 1008.4
20260503230036 4 75 3.2 19.3 0.00 0.10 0.08 58 1008.1
20260503224534 4 117 4.8 12.9 0.00 0.10 0.08 58 1008.1
20260503223031 5 113 0.0 9.7 0.00 0.10 0.08 58 1008.1
20260503221532 5 89 0.0 6.4 0.00 0.10 0.08 56 1008.1
20260503220030 5 183 0.0 6.4 0.00 0.10 0.08 53 1008.1
20260503214530 5 266 4.8 12.9 0.00 0.10 0.08 50 1007.9
20260503213030 6 107 3.2 17.7 0.00 0.10 0.08 50 1007.9
20260503211530 6 310 3.2 11.3 0.00 0.10 0.08 54 1007.9
20260503210027 5 134 1.6 19.3 0.00 0.10 0.08 56 1008.1
20260503204526 6 246 3.2 17.7 0.00 0.10 0.08 52 1008.0
20260503203025 7 259 4.8 12.9 0.00 0.10 0.08 50 1007.6
20260503201525 7 112 3.2 12.9 0.00 0.10 0.08 52 1007.5
20260503200024 6 158 6.4 19.3 0.00 0.10 0.08 56 1007.6